| time (UTC) | temp F | wind direction | speed MPH | gust MPH | rain 1hr in | rain 24hr in | rain mn in | humidity % | barometer mb |
| 20260503040010 | 57 | 203 | 1.0 | 3.0 | 0.00 | 0.00 | 0.00 | 48 | 1010.9 |
| 20260503034508 | 57 | 207 | 2.0 | 3.0 | 0.00 | 0.00 | 0.00 | 48 | 1011.3 |
| 20260503033005 | 57 | 209 | 1.0 | 2.0 | 0.00 | 0.00 | 0.00 | 49 | 1011.5 |
| 20260503031503 | 56 | 209 | 0.0 | 3.0 | 0.00 | 0.00 | 0.00 | 49 | 1011.8 |
| 20260503030004 | 56 | 211 | 1.0 | 3.0 | 0.00 | 0.00 | 0.00 | 49 | 1011.9 |
| 20260503024502 | 57 | 215 | 1.0 | 2.0 | 0.00 | 0.00 | 0.00 | 48 | 1012.0 |
| 20260503023001 | 57 | 215 | 1.0 | 3.0 | 0.00 | 0.00 | 0.00 | 47 | 1012.0 |
| 20260503021605 | 57 | 219 | 0.0 | 0.0 | 0.00 | 0.00 | 0.00 | 47 | 1012.0 |
| 20260503020105 | 58 | 219 | 0.0 | 0.0 | 0.00 | 0.00 | 0.00 | 45 | 1012.0 |
| 20260503014600 | 58 | 219 | 0.0 | 3.0 | 0.00 | 0.00 | 0.00 | 45 | 1012.0 |
| 20260503013103 | 58 | 221 | 1.0 | 2.0 | 0.00 | 0.00 | 0.00 | 44 | 1012.1 |
| 20260503011607 | 59 | 221 | 0.0 | 1.0 | 0.00 | 0.00 | 0.00 | 43 | 1012.2 |
| 20260503010100 | 59 | 222 | 1.0 | 4.0 | 0.00 | 0.00 | 0.00 | 42 | 1012.3 |
| 20260503004556 | 59 | 225 | 0.0 | 2.0 | 0.00 | 0.00 | 0.00 | 41 | 1012.3 |
| 20260503003054 | 60 | 227 | 1.0 | 4.0 | 0.00 | 0.00 | 0.00 | 41 | 1012.5 |
| 20260503001554 | 60 | 229 | 0.0 | 3.0 | 0.00 | 0.00 | 0.00 | 41 | 1012.7 |
| 20260503000107 | 60 | 229 | 1.0 | 7.0 | 0.00 | 0.00 | 0.00 | 40 | 1012.8 |
| 20260502234550 | 61 | 234 | 4.0 | 7.0 | 0.00 | 0.00 | 0.00 | 39 | 1012.9 |
| 20260502233048 | 60 | 230 | 3.0 | 7.0 | 0.00 | 0.00 | 0.00 | 40 | 1013.2 |
| 20260502231612 | 61 | 233 | 4.0 | 7.0 | 0.00 | 0.00 | 0.00 | 39 | 1013.4 |
| 20260502230046 | 61 | 257 | 6.0 | 12.0 | 0.00 | 0.00 | 0.00 | 39 | 1013.6 |
| 20260502224555 | 61 | 253 | 6.0 | 13.0 | 0.00 | 0.00 | 0.00 | 39 | 1013.7 |
| 20260502223044 | 61 | 239 | 4.0 | 11.0 | 0.00 | 0.00 | 0.00 | 39 | 1013.8 |
| 20260502221544 | 61 | 232 | 3.0 | 12.0 | 0.00 | 0.00 | 0.00 | 38 | 1013.9 |
| 20260502220047 | 61 | 235 | 5.0 | 13.0 | 0.00 | 0.00 | 0.00 | 38 | 1014.0 |
| 20260502214541 | 61 | 239 | 6.0 | 12.0 | 0.00 | 0.00 | 0.00 | 38 | 1014.1 |
| 20260502213037 | 61 | 263 | 3.0 | 16.0 | 0.00 | 0.00 | 0.00 | 38 | 1014.5 |
| 20260502211536 | 61 | 237 | 7.0 | 16.0 | 0.00 | 0.00 | 0.00 | 37 | 1014.5 |
| 20260502210033 | 61 | 229 | 5.0 | 11.0 | 0.00 | 0.00 | 0.00 | 36 | 1014.8 |
| 20260502204532 | 60 | 232 | 3.0 | 8.0 | 0.00 | 0.00 | 0.00 | 36 | 1014.9 |
| 20260502203031 | 61 | 226 | 5.0 | 9.0 | 0.00 | 0.00 | 0.00 | 36 | 1015.1 |
| 20260502201530 | 60 | 240 | 5.0 | 14.0 | 0.00 | 0.00 | 0.00 | 35 | 1015.4 |
| 20260502200026 | 60 | 296 | 7.0 | 14.0 | 0.00 | 0.00 | 0.00 | 36 | 1015.6 |
| 20260502194523 | 60 | 344 | 3.0 | 13.0 | 0.00 | 0.00 | 0.00 | 36 | 1015.9 |
| 20260502193022 | 59 | 244 | 7.0 | 15.0 | 0.00 | 0.00 | 0.00 | 35 | 1016.1 |
| 20260502191519 | 59 | 245 | 4.0 | 13.0 | 0.00 | 0.00 | 0.00 | 37 | 1016.3 |
| 20260502190022 | 58 | 228 | 4.0 | 10.0 | 0.00 | 0.00 | 0.00 | 36 | 1016.5 |
| 20260502184514 | 58 | 245 | 7.0 | 14.0 | 0.00 | 0.00 | 0.00 | 35 | 1016.8 |
| 20260502183012 | 58 | 238 | 3.0 | 9.0 | 0.00 | 0.00 | 0.00 | 37 | 1017.0 |
| 20260502181510 | 57 | 249 | 5.0 | 11.0 | 0.00 | 0.00 | 0.00 | 36 | 1017.2 |
| 20260502163056 | 55 | 269 | 7.0 | 12.0 | 0.00 | 0.00 | 0.00 | 39 | 1018.4 |
| 20260502161616 | 54 | 278 | 5.0 | 16.0 | 0.00 | 0.00 | 0.00 | 41 | 1018.6 |
| 20260502160108 | 54 | 271 | 6.0 | 11.0 | 0.00 | 0.00 | 0.00 | 45 | 1018.6 |
| 20260502151537 | 51 | 250 | 2.0 | 7.0 | 0.00 | 0.00 | 0.00 | 51 | 1018.9 |
| 20260502130125 | 40 | 238 | 1.0 | 4.0 | 0.00 | 0.00 | 0.00 | 70 | 1019.6 |
| 20260502123125 | 35 | 10 | 0.0 | 0.0 | 0.00 | 0.00 | 0.00 | 85 | 1019.7 |
| 20260502121554 | 33 | 10 | 0.0 | 0.0 | 0.00 | 0.00 | 0.00 | 88 | 1019.7 |
| 20260502120112 | 31 | 10 | 0.0 | 0.0 | 0.00 | 0.00 | 0.00 | 87 | 1019.7 |
| 20260502114555 | 31 | 10 | 0.0 | 0.0 | 0.00 | 0.00 | 0.00 | 87 | 1019.6 |
| 20260502113051 | 31 | 10 | 0.0 | 0.0 | 0.00 | 0.00 | 0.00 | 86 | 1019.5 |
| 20260502111549 | 31 | 10 | 0.0 | 0.0 | 0.00 | 0.00 | 0.00 | 86 | 1019.5 |
| 20260502110049 | 31 | 10 | 0.0 | 0.0 | 0.00 | 0.00 | 0.00 | 85 | 1019.5 |
| 20260502104545 | 31 | 10 | 0.0 | 1.0 | 0.00 | 0.00 | 0.00 | 84 | 1019.5 |
| 20260502103044 | 30 | 10 | 0.0 | 0.0 | 0.00 | 0.00 | 0.00 | 82 | 1019.6 |
| 20260502101553 | 30 | 10 | 0.0 | 0.0 | 0.00 | 0.00 | 0.00 | 81 | 1019.5 |
| 20260502071530 | 33 | 9 | 0.0 | 0.0 | 0.00 | 0.00 | 0.00 | 79 | 1020.1 |
| 20260502070026 | 34 | 9 | 0.0 | 0.0 | 0.00 | 0.00 | 0.00 | 77 | 1020.3 |
| 20260502064525 | 34 | 9 | 0.0 | 0.0 | 0.00 | 0.00 | 0.00 | 77 | 1020.3 |
| 20260502063021 | 35 | 9 | 0.0 | 0.0 | 0.00 | 0.00 | 0.00 | 75 | 1020.4 |
| 20260502061517 | 35 | 9 | 0.0 | 0.0 | 0.00 | 0.00 | 0.00 | 74 | 1020.3 |
| 20260502060016 | 36 | 9 | 0.0 | 0.0 | 0.00 | 0.00 | 0.00 | 74 | 1020.3 |
| 20260502054521 | 36 | 9 | 0.0 | 0.0 | 0.00 | 0.00 | 0.00 | 74 | 1020.3 |
| 20260502053012 | 37 | 9 | 0.0 | 0.0 | 0.00 | 0.00 | 0.00 | 73 | 1020.3 |
| 20260502051515 | 37 | 9 | 0.0 | 0.0 | 0.00 | 0.00 | 0.00 | 71 | 1020.2 |
| 20260502050025 | 38 | 9 | 0.0 | 0.0 | 0.00 | 0.00 | 0.00 | 71 | 1020.2 |
| 20260502044506 | 39 | 9 | 0.0 | 0.0 | 0.00 | 0.00 | 0.00 | 67 | 1020.1 |
| 20260502043006 | 40 | 9 | 0.0 | 0.0 | 0.00 | 0.00 | 0.00 | 63 | 1020.1 |
| 20260502041505 | 40 | 9 | 0.0 | 0.0 | 0.00 | 0.00 | 0.00 | 64 | 1020.0 |